FW5686 Weather Reports


Display with metric or nautical units.
time (UTC)temp
F
wind
direction
speed
MPH
gust
MPH
rain 1hr
in
rain 24hr
in
rain mn
in
humidity
%
barometer
mb
20260509013031 54 215 2.0 9.0 0.09 0.14 0.14 91 1011.0
20260509011530 54 269 2.0 7.0 0.08 0.11 0.11 90 1011.1
20260509010031 54 210 0.0 4.0 0.05 0.07 0.07 89 1010.7
20260509004537 54 210 2.0 5.0 0.05 0.06 0.06 89 1010.6
20260509003029 54 232 4.0 8.0 0.05 0.05 0.05 88 1010.8
20260509001530 54 243 3.0 7.0 0.03 0.03 0.03 86 1010.9
20260509000038 55 251 2.0 7.0 0.02 0.02 0.02 85 1010.8
20260508234536 56 234 3.0 10.0 0.01 0.01 0.01 82 1010.9
20260508233030 57 276 2.0 11.0 0.00 0.00 0.00 81 1010.8
20260508231528 58 271 4.0 11.0 0.00 0.00 0.00 76 1010.9
20260508230027 59 250 2.0 12.0 0.00 0.00 0.00 74 1010.6
20260508224530 59 240 3.0 10.0 0.00 0.00 0.00 73 1010.7
20260508223034 60 218 5.0 11.0 0.00 0.00 0.00 70 1010.4
20260508221531 61 219 4.0 10.0 0.00 0.00 0.00 65 1010.3
20260508220030 62 202 3.0 6.0 0.00 0.00 0.00 64 1009.9
20260508214530 62 207 3.0 9.0 0.00 0.00 0.00 62 1009.9
20260508213029 62 194 4.0 11.0 0.00 0.00 0.00 60 1010.2
20260508211527 63 205 3.0 8.0 0.00 0.00 0.00 62 1010.3
20260508210028 63 198 4.0 9.0 0.00 0.00 0.00 62 1010.5
20260508204533 63 175 3.0 7.0 0.00 0.00 0.00 61 1010.5
20260508203031 62 184 4.0 8.0 0.00 0.00 0.00 63 1010.9
20260508201530 62 198 5.0 14.0 0.00 0.00 0.00 62 1011.1
20260508200031 63 171 6.0 11.0 0.00 0.00 0.00 61 1011.3
20260508194555 62 198 7.0 17.0 0.00 0.00 0.00 61 1011.5
20260508193028 62 177 7.0 15.0 0.00 0.00 0.00 62 1011.6
20260508191528 62 175 6.0 12.0 0.00 0.00 0.00 62 1011.9
20260508190029 62 232 6.0 13.0 0.00 0.00 0.00 65 1012.1
20260508184533 62 192 11.0 22.0 0.00 0.00 0.00 61 1012.1
20260508183028 62 187 10.0 19.0 0.00 0.00 0.00 59 1012.2
20260508181547 63 213 9.0 16.0 0.00 0.00 0.00 61 1012.1
20260508180031 64 214 9.0 17.0 0.00 0.00 0.00 63 1012.2
20260508174527 63 203 9.0 17.0 0.00 0.00 0.00 65 1012.6
20260508173037 61 188 9.0 15.0 0.00 0.00 0.00 63 1013.0
20260508171533 61 179 12.0 21.0 0.00 0.00 0.00 62 1013.4
20260508170030 61 200 8.0 18.0 0.00 0.00 0.00 65 1013.4
20260508164532 61 187 6.0 14.0 0.00 0.00 0.00 64 1013.7
20260508163030 61 266 8.0 15.0 0.00 0.00 0.00 64 1014.0
20260508161531 62 245 12.0 21.0 0.00 0.00 0.00 61 1014.1
20260508160032 63 209 10.0 21.0 0.00 0.00 0.00 62 1014.0
20260508154532 63 196 10.0 18.0 0.00 0.00 0.00 60 1014.3
20260508153041 62 254 12.0 19.0 0.00 0.00 0.00 61 1014.2
20260508151532 61 219 12.0 19.0 0.00 0.00 0.00 62 1014.1
20260508150029 61 184 6.0 22.0 0.00 0.00 0.00 63 1014.3
20260508144530 60 257 6.0 16.0 0.00 0.00 0.00 66 1014.5
20260508143030 59 209 9.0 20.0 0.00 0.00 0.00 63 1014.4
20260508141530 58 238 5.0 15.0 0.00 0.00 0.00 64 1014.6
20260508140029 57 209 9.0 18.0 0.00 0.00 0.00 66 1014.7
20260508134531 56 191 8.0 17.0 0.00 0.00 0.00 65 1014.6
20260508133034 56 261 6.0 15.0 0.00 0.00 0.00 65 1014.7
20260508131530 55 241 5.0 13.0 0.00 0.00 0.00 69 1014.9
20260508130029 54 272 4.0 13.0 0.00 0.00 0.00 68 1015.0
20260508124530 53 205 6.0 10.0 0.00 0.00 0.00 68 1014.8
20260508123030 52 185 6.0 10.0 0.00 0.00 0.00 70 1014.7
20260508121527 51 196 5.0 11.0 0.00 0.00 0.00 70 1014.6
20260508120029 50 188 7.0 14.0 0.00 0.00 0.00 71 1014.5
20260508114528 49 180 7.0 12.0 0.00 0.00 0.00 72 1014.5
20260508113031 47 178 5.0 10.0 0.00 0.00 0.00 76 1014.2
20260508111529 45 173 4.0 7.0 0.00 0.00 0.00 78 1014.3
20260508110027 45 178 4.0 7.0 0.00 0.00 0.00 78 1014.4
20260508104528 45 192 4.0 7.0 0.00 0.00 0.00 78 1014.2
20260508103029 46 176 4.0 7.0 0.00 0.00 0.00 76 1014.2
20260508101530 47 180 3.0 6.0 0.00 0.00 0.00 74 1014.2
20260508100027 48 186 4.0 8.0 0.00 0.00 0.00 72 1014.2
20260508094527 48 196 3.0 9.0 0.00 0.00 0.00 73 1014.1
20260508093026 48 188 4.0 7.0 0.00 0.00 0.00 72 1014.3
20260508091529 48 190 4.0 8.0 0.00 0.00 0.00 72 1014.3
20260508090032 48 184 3.0 8.0 0.00 0.00 0.00 72 1014.3
20260508084530 48 198 4.0 8.0 0.00 0.00 0.00 72 1014.4
20260508083029 48 219 4.0 9.0 0.00 0.00 0.00 71 1014.3
20260508081533 49 208 5.0 9.0 0.00 0.00 0.00 72 1014.3
20260508080031 49 192 5.0 10.0 0.00 0.00 0.00 72 1014.1
20260508074530 48 207 4.0 9.0 0.00 0.00 0.00 75 1014.4
20260508073028 49 219 6.0 10.0 0.00 0.00 0.00 72 1014.4
20260508071533 48 216 3.0 6.0 0.00 0.00 0.00 73 1014.6
20260508070032 48 185 3.0 7.0 0.00 0.00 0.00 70 1014.4
20260508064528 48 190 3.0 7.0 0.00 0.00 0.00 71 1014.7
20260508063028 48 194 3.0 7.0 0.00 0.00 0.00 71 1014.8
20260508061530 47 188 2.0 5.0 0.00 0.00 0.00 71 1014.9
20260508060030 47 188 2.0 5.0 0.00 0.00 0.00 71 1014.7
20260508054540 47 217 2.0 5.0 0.00 0.00 0.00 71 1015.1
20260508053032 47 180 2.0 5.0 0.00 0.00 0.00 70 1015.1
20260508051531 47 190 2.0 6.0 0.00 0.00 0.00 71 1015.1
20260508050029 47 201 3.0 6.0 0.00 0.00 0.00 71 1015.0
20260508044530 47 179 3.0 6.0 0.00 0.00 0.00 71 1015.0
20260508043029 48 177 3.0 6.0 0.00 0.00 0.00 70 1015.1
20260508041531 48 188 2.0 6.0 0.00 0.00 0.00 69 1015.0
20260508040031 48 196 1.0 4.0 0.00 0.00 0.00 69 1014.9
20260508034538 49 190 1.0 4.0 0.00 0.00 0.00 68 1014.9
20260508033030 50 188 3.0 8.0 0.00 0.00 0.00 67 1014.9
20260508031528 49 190 3.0 7.0 0.00 0.00 0.00 68 1014.8
20260508030030 50 178 3.0 5.0 0.00 0.00 0.00 66 1014.9
20260508024534 49 182 1.0 3.0 0.00 0.00 0.00 68 1014.9
20260508023032 49 182 0.0 3.0 0.00 0.00 0.00 68 1014.8
20260508021530 50 176 3.0 6.0 0.00 0.00 0.00 67 1014.6
20260508020028 50 210 0.0 4.0 0.00 0.00 0.00 66 1014.6
20260508014527 51 219 0.0 3.0 0.00 0.00 0.00 68 1014.6